33P/Daniel (2008)

Japanese version
Home page
Total 6,336 html files since Dec. 4, 1995
Updated on August 8, 2007

---------------------------------------------------------------------

* Profile

* Orbital Elements

Epoch 2008 Aug. 2.0 TT = JDT 2454680.5  
T 2008 July 20.35791 TT                                 Muraoka 
q   2.1697279            (2000.0)            P               Q
n   0.12172608     Peri.   18.97660     +0.10008150     -0.93165462
a   4.0322453      Node    66.57180     +0.85654308     -0.09795369
e   0.4619058      Incl.   22.37537     +0.50627823     +0.34989248
P   8.10
>From 60 observations 1979-2001, mean residual 0".88.  Nongravitational
   parameters A1 = +0.29 +/- 0.03, A2 = +0.0727 +/- 0.0009.

* Magnitudes Graph

        m1 = 10.5 + 5 log d + 15.0 log r

---------------------------------------------------------------------

The orbital elements are calculated by Kenji Muraoka.
The magnitudes graphs are made with Comet for Windows.

---------------------------------------------------------------------

Copyright(C) 1995-2008 Seiichi Yoshida (comet@aerith.net). All rights reserved.